Regional Weather Roundup
Issued by NWS Upton, NY

Current Version | Previous Version | Graphics & Text | Print | Product List | Glossary Off
Versions: 1 2 3 4 5 6 7 8 9 10 11 12 13 14 15 16 17 18 19 20 21 22 23 24 25 26 27

000
ASUS41 KOKX 302305
RWROKX

REGIONAL WEATHER ROUNDUP
NATIONAL WEATHER SERVICE NEW YORK NY
700 PM EDT TUE AUG 30 2016

NOTE: "FAIR" INDICATES FEW OR NO CLOUDS BELOW 12,000 FEET WITH NO
SIGNIFICANT WEATHER AND/OR OBSTRUCTIONS TO VISIBILITY.

NYZ071-072-176-178-NJZ106-104-310000-
NEW YORK CITY METRO AREA

CITY           SKY/WX    TMP DP  RH WIND       PRES   REMARKS
Central Park   CLEAR     78  63  59 VRB3      30.07S
LaGuardia APRT MOCLDY    79  64  60 S15       30.04S
Kennedy INTL   MOCLDY    78  72  81 S14       30.06F
Newark/Liberty MOCLDY    79  66  64 SE8       30.04S
Bronx Bot Gard   N/A     77  63  61 S10       30.04F
Wall St Helipt CLEAR     81  66  61 S8        30.06S
Teterboro      PTCLDY    80  61  52 SW9       30.02F
$$

NYZ177-179-078>081-310000-
LONG ISLAND NEW YORK

CITY           SKY/WX    TMP DP  RH WIND       PRES   REMARKS
Farmingdale    CLEAR     76  63  64 S9        30.06F
MacArthur/ISP  MOCLDY    76  62  62 S10       30.05F
Shirley        CLEAR     75  62  64 S9        30.06F
Riverhead      NOT AVBL
Westhampton    CLEAR     74  61  63 S5        30.07F
Southampton      N/A     75  64  69 SW5       30.02F
Bridgehampton    N/A     75  64  69 S1        29.92S
East Hampton   FAIR      73  63  71 S3        30.05F
Montauk          N/A     74  65  73 S6        30.07F
$$

NYZ052-065-067-310000-
HUDSON VALLEY

CITY           SKY/WX    TMP DP  RH WIND       PRES   REMARKS
White Plains   PTCLDY    77  63  61 CALM      30.05S
Newburgh       NOT AVBL
Montgomery     CLEAR     76  63  64 SW3       30.04F
Poughkeepsie   CLEAR     79  59  50 VRB3      30.02F
Albany         PTCLDY    78  56  46 NW5       30.04F
$$

NJZ001-105-106-008-010-013-015-019>022-104-310000-
NEW JERSEY

CITY           SKY/WX    TMP DP  RH WIND       PRES   REMARKS
Newark/Liberty MOCLDY    79  66  64 SE8       30.04S
Teterboro      PTCLDY    80  61  52 SW9       30.02F
Caldwell       CLEAR     83  61  47 VRB5      30.04F
Morristown     MOCLDY    81  55  41 NW5       30.04F
Somerville     CLEAR     81  61  50 N3        30.02F
Linden         FAIR      80  65  59 S7        30.06F
Sussex         CLOUDY    79  62  56 CALM      30.05F
Abdover          N/A     74  63  68 CALM      30.06F
Trenton        CLEAR     85  59  41 N6        30.02F
Millville      CLEAR     81  72  74 S3        30.04F
Atlantic City  CLEAR     80  70  71 SE6       30.04F
Wrightstown    CLEAR     79  67  68 E9        30.01F
Toms River     PTCLDY    78  70  76 SE5       30.06S
Belmar         CLEAR     77  68  73 SE8       30.07F
$$

PAZ047>061-062-071-310000-
EASTERN PENNSYLVANIA

CITY           SKY/WX    TMP DP  RH WIND       PRES   REMARKS
Philadelphia   PTCLDY    87  56  34 NW9       30.02F
Allentown      CLEAR     80  59  48 W3        30.05F
Scranton       CLOUDY    79  61  53 SW7       30.07F
$$

CTZ002-004>006-009-010-012-RIZ004-006-007-MAZ004-011-015-310000-
SOUTHERN NEW ENGLAND
 IN CT

CITY           SKY/WX    TMP DP  RH WIND       PRES   REMARKS
Bradley INTL   PTCLDY    80  53  39 W8        30.03F
Hartford       CLEAR     84  56  38 W6        30.02F
Danbury        CLEAR     75  62  64 VRB3      30.06F
Wtrbury/Oxford PTCLDY    75  57  53 CALM      30.09F
Bridgeport     CLEAR     80  65  59 S6        30.04F
Meriden        CLEAR     78  58  49 CALM      30.04F
New Haven      CLEAR     78  63  59 S6        30.05F
Chester        FAIR      75  61  60 SW5       30.06S
Groton         CLEAR     74  67  78 S8        30.04F
Wilimantic     CLEAR     79  59  50 SW5       30.04F

 IN RI

CITY           SKY/WX    TMP DP  RH WIND       PRES   REMARKS
Providence     PTCLDY    76  63  64 S9        30.04F
Block Island   CLEAR     73  65  75 SW10      30.07F
Westerly       CLEAR     74  63  68 S8        30.06F
 IN MA

CITY           SKY/WX    TMP DP  RH WIND       PRES   REMARKS
Boston         MOCLDY    72  64  76 E7        30.03S
Worcester      CLEAR     74  55  51 S3        30.06F
Westfield      CLEAR     81  54  39 NW7       30.03S
Provincetown   PTCLDY    71  64  78 S10G17    30.05F
Nantucket      CLEAR     68  61  78 S9        30.07F
$$

ANZ330-335-338-340-345-350-353-355-310000-
COASTAL MARINE OBSERVATIONS


STATION/POSITION TIME  SKY/WX   TEMP    WIND        PRES    VSBY  WAVE
                                AIR SEA DIR/SP/G                  HT/PER
                 (UTC)          (F)     (DEG/KT/KT) (MB)    (MI)  (FT/S)
NY HARB ENTRANCE 2150            76 78  150/ 10/ 12 1017.7          4/12
20S FIRE ISLAND  2150            76 78  150/  8/ 10 1017.9          4/11
GREAT SOUTH BAY  2200            76 80  180/  8/ 10   N/A
23 SSW MONTAUK P 2150            75 80  200/  8/ 10 1018.7          5/11
15 E BARNEGAT LI 2200               78                N/A           5/13
HUDSON CANYON    NOT AVBL
KINGS POINT      2200            80 79              1017.4
EXECUTION ROCKS  2200            81     200/  8/ 10   N/A
CENTRAL LI SOUND 2230            78 78  170/  8/ 10   N/A           0
EASTERN LI SOUND 2200            79 71  200/ 10/ 12   N/A
ROBBINS REEF     2206            75                 1017.0
$$


>>>>>>>>>>>>>>>>>>>>>>>>>>>> KEY <<<<<<<<<<<<<<<<<<<<<<<<<<<
>                                                          <
>     SKY/WX - Sky Condition/Present Weather               <
>     TMP    - Temperature in Fahrenheit                   <
>     DP     - Dew Point in Fahrenheit                     <
>     RH     - Relative Humidity in Percent                <
>     WIND   - Direction (from) and Speed in MPH           <
>     PRES   - Mean Sea Level Pressure (inches of Hg)      <
>     WCI    - Wind Chill Index                            <
>     VSB    - VISIBILITY IN MILES                         <
>     HX     - HEAT INDEX                                  <
>     TC     - TEMPERATURE IN CELSIUS                      <
>     VRB    - VARIABLE WIND DIRECTION                     <
>                                                          <
>>>>>>>>>>>>>>>>>>>>>>>>>>>> KEY <<<<<<<<<<<<<<<<<<<<<<<<<<<




USA.gov is the U.S. government's official web portal to all federal, state and local government web resources and services.